Location: Boiro
(42.6475°N, 8.8834°W)
Time: 17:37:52
(UTC+01:00)

Transit 2A - Pass Details

Date: 03 December 2021
Orbit: 591 x 967 km, 66.7° (Epoch: 20 January)

Event Time Altitude Azimuth Distance (km) Brightness Sun altitude
Rises 08:53:28 0° 335° (NNW) 3,650 9.0 0.0°
Reaches altitude 10° 08:56:43 10° 350° (N) 2,713 8.5 0.5°
Maximum altitude 09:01:31 22° 39° (NE) 1,986 8.3 1.3°
Drops below altitude 10° 09:06:14 10° 88° (E) 2,661 9.8 2.0°
Sets 09:09:22 0° 103° (ESE) 3,561 11.1 2.5°
